Regional Weather Roundup
Issued by NWS Grand Forks, ND

Home | Current Version | Previous Version | Graphics & Text | Print | Product List | Glossary On
Versions: 1 2 3 4 5 6 7 8 9 10 11 12 13 14 15 16 17 18 19 20 21 22 23 24 25 26 27 28 29 30 31 32 33 34 35 36 37 38 39 40 41 42 43 44 45 46 47 48 49 50
000
ASUS43 KFGF 280431
RWRFGF
PRAIRIE TO PINES  WEATHER ROUNDUP
NATIONAL WEATHER SERVICE EASTERN NORTH DAKOTA/GRAND FORKS ND
1000 PM CST TUE JAN 27 2015

 **SATELLITE DATA USED TO AUGMENT SKY COVER AT AUTOMATED STATIONS**
 *****  WEATHER ACROSS EASTERN NORTH DAKOTA  *****

CITY           SKY/WX    TMP DP  RH WIND       PRES   REMARKS
GRAND FORKS    CLOUDY    32  30  92 S15G26    29.91F WCI  22
GRAND FRKS AFB CLOUDY    31  30  94 S18       29.90F WCI  19
DEVILS LAKE    CLOUDY    34  30  86 SE13      29.80S VSB 3/4 WCI  25
FARGO          CLOUDY    34  31  88 SE17G26   29.93F WCI  23
WAHPETON ARPT  CLOUDY    32  30  93 SE17      29.95F WCI  21
$$

 ***** WEATHER ACROSS CENTRAL AND WESTERN NORTH DAKOTA  *****

CITY           SKY/WX    TMP DP  RH WIND       PRES   REMARKS
BISMARCK       MOCLDY    33  31  92 E5        29.79F
MINOT          CLOUDY    34  30  85 NW3       29.77S
JAMESTOWN      CLOUDY    33  32  96 S12       29.82S WCI  24
MINOT AFB      CLOUDY    31  31 100 N3        29.77S
GARRISON         N/A     34  32  92 N3        29.77R
WILLISTON      CLOUDY    32  30  92 SW3       29.77S
DICKINSON      CLOUDY    37  31  78 S6        29.77S
HETTINGER      CLOUDY    32  28  85 N3        29.80F
$$

 *****  OTHER AIRPORT OBSERVATIONS IN OUR AREA  *****

CITY           SKY/WX    TMP DP  RH WIND       PRES   REMARKS
WALHALLA         N/A     32  32 100 SE12      29.88S FOG     WCI  23
GRAFTON AIRPOR NOT AVBL
VALLEY CITY AR FOG       32  32 100 S16G22    29.85F VSB 1/2 WCI  21
CANDO          FOG       32  32 100 SE10      29.81S VSB 1/4 WCI  24
CAVALIER APRT  CLOUDY    32  32 100 S12       29.89F FOG     WCI  23
GWINNER        CLOUDY    34  34 100 CALM      29.90F
SHEYENNE NWR     N/A     33  32  96 S14       29.95S WCI  23
ROLLA          FOG       32  32 100 SE6       29.80S VSB<1/4
 ***** THE ABOVE OBSERVATIONS ARE NON NWS ARE NOT QUALITY
       CONTROLLED AND MAY MIS-REPORT RAIN FOR SNOW...
$$

  *****  WEATHER ACROSS NORTHERN MINNESOTA  *****

CITY           SKY/WX    TMP DP  RH WIND       PRES   REMARKS
FLAG ISLAND    CLOUDY    30  27  86 SE9       29.96S WCI  22
WARROAD        PTCLDY    30  27  86 S7        29.95F WCI  23
ROSEAU         PTCLDY    30  25  80 S10       29.94F WCI  21
HALLOCK        CLOUDY    32  30  93 S14       29.91F WCI  22
THF RVR FALLS  CLOUDY    30  27  86 S10       29.94F WCI  21
BAUDETTE       CLOUDY    30  23  75 SE6       29.97S WCI  24
WASKISH        PTCLDY    30  27  86 SE8       29.98F WCI  23
CROOKSTON      CLOUDY    32  30  93 S17G23    29.95S WCI  21
STEPHEN NDAWN    N/A     32  30  93 S15         N/A  WCI  22
GREENBUSH NDAW   N/A     25  23  93 S5          N/A  WCI  19
$$
  *****  WEATHER ACROSS CENTRAL AND WEST MINNESOTA  *****

CITY           SKY/WX    TMP DP  RH WIND       PRES   REMARKS
FOSSTON        CLOUDY    28  25  86 S6        29.95S WCI  22
BEMIDJI        CLOUDY    29  26  87 SE13      29.97F WCI  19
PARK RAPIDS    CLOUDY    31  26  82 SE15      29.99F WCI  20
ELBOW LAKE     CLOUDY    32  31  94 SE16G25   29.98F WCI  21
WADENA         CLOUDY    30  27  86 S15G21    30.00S WCI  19
DETROIT LAKES  CLOUDY    32  30  93 S15G21    29.97S WCI  22
MOORHEAD       CLOUDY    34  34 100 SE20G25   29.94F WCI  22
FERGUS FALLS   CLOUDY    32  30  93 SE17G25   30.00F WCI  21
MORRIS MN      CLOUDY    34  32  93 SE18      29.98F FOG     WCI  23
STAPLES        CLOUDY    30  27  86 SE9G16    30.02F WCI  22
$$
  *****  WEATHER ELSEWHERE ACROSS MINNESOTA  *****

CITY           SKY/WX    TMP DP  RH WIND       PRES   REMARKS
DULUTH         CLOUDY    27  22  81 S7        30.08F WCI  19
INTRNTL FALLS  CLOUDY    29  25  85 SE6       30.01S WCI  23
ELY            CLOUDY    27  23  86 S7        30.06F WCI  19
CLOQUET        CLOUDY    27  21  80 SE5       30.08F WCI  21
WHEATON        PTCLDY    30  30 100 SE17      29.97F WCI  18
BRAINERD       CLOUDY    30  25  81 S10       30.06S WCI  21
HIBBING        CLOUDY    28  21  75 S8        30.06F WCI  20
ALEXANDRIA     CLOUDY    31  28  89 S16       30.01F WCI  20
SAINT CLOUD    CLOUDY    31  26  82 S14       30.09R WCI  21
MINNEAPOLIS    CLOUDY    31  25  78 SE10      30.13F WCI  22
$$

  *****  WEATHER ACROSS SOUTH DAKOTA  *****

CITY           SKY/WX    TMP DP  RH WIND       PRES   REMARKS
SIOUX FALLS    CLEAR     37  32  82 SE13      29.95F
BROOKINGS      NOT AVBL
WATERTOWN      CLEAR     34  32  92 S16       29.89F WCI  24
HURON          CLEAR     36  32  85 S12       29.87F
SISSETON         N/A     32  32 100 S14       29.93F WCI  22
ABERDEEN       CLEAR     35  32  88 S13       29.87F
MITCHELL       CLEAR     38  33  82 SE15      29.89F
PIERRE         PTCLDY    41  34  76 E3        29.81S
MOBRIDGE       PTCLDY    37  33  85 SE9       29.79S
RAPID CITY     MOCLDY    50  27  40 SW6       29.82F
$$

  *****  SOME WEATHER IN NEARBY STATES *****

CITY           SKY/WX    TMP DP  RH WIND       PRES   REMARKS
GLASGOW MT     PTCLDY    35  31  85 CALM      29.76F
GREAT FALLS MT CLOUDY    46  29  51 SW10      29.87R
CHEYENNE WY    CLEAR     44  22  41 W14       30.04F
SCOTTSBLUFF NE   N/A    N/A N/A N/A MISG      29.96S
OMAHA NE       CLEAR     40  30  67 S15       30.03F
DES MOINES IA  CLEAR     32  27  81 SE10      30.14S WCI  24
DAVENPORT IA   CLOUDY    27  21  78 SE10      30.23S WCI  17
CHICAGO IL     PTCLDY    22  17  81 CALM      30.25R
EAU CLAIRE WI  CLOUDY    27  20  75 SE8       30.18R WCI  19
LA CROSSE WI   CLOUDY    29  21  72 S8        30.21R WCI  21
$$

  *****  SOME NATIONAL WEATHER *****

CITY           SKY/WX    TMP DP  RH WIND       PRES   REMARKS
LA GUARDIA NY  CLOUDY    21  10  62 N15G21    29.83R WCI   8
RALEIGH NC     PTCLDY    32  10  40 N7        29.98R
ATLANTA GA     CLEAR     37  28  70 N10       30.08S
NEW ORLEANS LA CLEAR     56  42  59 CALM      30.15R
OKLAHOMA CITY  PTCLDY    54  37  52 SW8       30.06S
ALBUQUERQUE NM PTCLDY    44  28  53 SE3       30.25F
SALT LAKE CITY MOCLDY    40  36  86 VRB5      30.16R
LOS ANGELES CA CLEAR     60  56  86 W6        30.17S
BOISE ID       LGT RAIN  37  36  96 NW3       30.16S FOG
SEATTLE WA     CLOUDY    48  46  93 W7        30.20R FOG
$$

*** WEATHER ACROSS MANITOBA...SASKATCHEWAN AND ONTARIO ***
                ***ONTARIO***

CITY           SKY/WX    TMP DP  RH WIND       PRES   REMARKS
GERALDTON      CLOUDY    23  19  86 SW9       30.07F WCI  13
THUNDER BAY    MOCLDY    25  23  93 SW5       30.15S WCI  19
SIOUX LOOKOUT  FLURRIES  25  23  93 S6        30.01F WCI  18
TORONTO        CLEAR     12   1  62 N12       30.14R WCI  -2
BIG TROUT LK   CLOUDY    18  16  93 N7        30.00R WCI   8
PICKLE LAKE    NOT AVBL
DRYDEN         FLURRIES  25  25 100 S6        30.00S WCI  18
KENORA         CLOUDY    27  27 100 S10       29.97R WCI  17
$$
                *** MANITOBA***

CITY           SKY/WX    TMP DP  RH WIND       PRES   REMARKS
BRANDON        FOG       27  27 100 NE14      29.84S VSB 1/4 WCI  15
DAUPHIN        CLOUDY    25  23  93 N14       29.94S WCI  13
ISLAND LAKE    FLURRIES  16  14  93 N7        30.05R WCI   6
PILOT MOUND      N/A     32  32 100 SE10        N/A  WCI  24
THE PAS        CLOUDY     7   3  85 NE7       30.10R WCI  -5
THOMPSON       CLEAR     -6 -11  77 CALM      30.15R
WINNIPEG       CLOUDY    30  28  93 S12       29.94S WCI  21
LYNN LAKE      CLEAR    -13 -18  77 N9        30.14R WCI -31
CHURCHILL      CRYSTALS -11 -18  70 NW26G35   30.09R WCI -40
GILLAM         CLEAR     -6 -13  71 NW9       30.13R WCI -22
$$
                ***SASKATCHEWAN***

CITY           SKY/WX    TMP DP  RH WIND       PRES   REMARKS
ESTEVAN        CLOUDY    28  27  93 E6        29.77S WCI  22
KINDERSLEY     CLOUDY    28  28 100 E15       29.75F WCI  17
LLOYDMINSTER   CLOUDY    25  23  93 NE9       29.83S WCI  15
PRINCE ALBERT  LGT SNOW  23  21  93 E17       29.94S VSB 1   WCI   9
REGINA         CLEAR     30  27  86 E7        29.79S WCI  23
YORKTON        PTCLDY    23  21  93 N8        29.87R WCI  14
N. BATTLEFORD  CLOUDY    30  28  93 E15       29.86F WCI  19
LA RONGE       MOCLDY     5  -2  72 NE10      30.09R WCI -10
SASKATOON      CLOUDY    28  27  93 NE14G24   29.87R WCI  17
SWIFT CURRENT  CLOUDY    36  32  87 S8        29.71F
$$
NOTE: THESE ARE AUTOMATED STATIONS WITH LIMITED QUALITY CONTROL
      "FAIR" INDICATES FEW OR NO CLOUDS BELOW 12,000 FEET WITH NO
      SIGNIFICANT WEATHER AND/OR OBSTRUCTIONS TO VISIBILITY.
      SKY/WX - SKY CONDITION AND SIGNIFICANT WEATHER.
      TMP - AIR TEMPERATURE.    DP   - DEWPOINT TEMPERATURE.
      RH  - RELATIVE HUMIDITY.  PRES - PRESSURE.
      HX  - HEAT INDEX.         WCI  - WIND CHILL INDEX.
$


USA.gov is the U.S. government's official web portal to all federal, state and local government web resources and services.